Flag for U.S.A. Weather past 2 weeks in Sandpoint, Idaho, U.S.A.

Now
54 °F

Overcast.


Feels Like: 54 °F
Forecast: 43 / 69 °F
Wind: No wind

Location: Sandpoint Airport

Current Time: Sep 1, 2014 at 1:19:18 AM

Latest Report: Sep 1, 2014 at 12:55 AM


Visibility: 10 mi

Pressure: 29.98 "Hg

Humidity: 100%

Dew point: 54 °F

Location of SandpointLocation

Historic Weather in Sandpoint — Graph

°F

Sandpoint temperature yesterday

Maximum temperature yesterday: 64 °F (at 1:35 PM)
Minimum temperature yesterday: 54 °F (at 11:15 PM)
Average temperature yesterday: 59 °F

Past Weeks' High & Low Weather Summary

 TemperatureHumidityPressure
High86 °F (Aug 18, 4:35 PM)100% (Aug 17, 12:15 AM)30.16 "Hg (Aug 17, 12:15 AM)
Low45 °F (Aug 26, 4:55 AM)26% (Aug 29, 3:15 PM)29.69 "Hg (Aug 19, 4:15 PM)
Average63 °F70%29.96 "Hg
* Reported Aug 17 12:15 AM — Sep 1 12:15 AM, Sandpoint, Weather by CustomWeather, © 2014

Note: Actual official high and low records may vary slightly from our data, if they occured in-between our weather recording intervals... More about our weather records

Advertising

Sandpoint weather history for previous 24 hours

 ConditionsComfort  
Time TempWeatherWind HumidityBarometerVisibility
12:15 AM
Sep 1
54 °FOvercast.No wind94%29.97 "Hg10 mi
11:55 PM
Aug 31
54 °FMostly cloudy.No wind94%29.97 "Hg10 mi
11:35 PM55 °FMostly cloudy.5 mph88%29.97 "Hg10 mi
11:15 PM54 °FMostly cloudy.No wind94%29.96 "Hg10 mi
10:55 PM55 °FMostly cloudy.3 mph82%29.96 "Hg10 mi
10:15 PM57 °FPassing clouds.7 mph77%29.95 "Hg10 mi
9:55 PM59 °FOvercast.3 mph72%29.95 "Hg10 mi
9:15 PM59 °FMostly cloudy.6 mph72%29.95 "Hg10 mi
8:55 PM59 °FOvercast.7 mph72%29.95 "Hg10 mi
8:35 PM59 °FMostly cloudy.8 mph72%29.95 "Hg10 mi
8:15 PM59 °FMore clouds than sun.5 mph77%29.95 "Hg10 mi
7:55 PM59 °FMostly cloudy.6 mph77%29.94 "Hg10 mi
7:35 PM59 °FMostly cloudy.6 mph77%29.94 "Hg10 mi
7:15 PM61 °FPartly sunny.5 mph72%29.94 "Hg10 mi
6:55 PM61 °FOvercast.5 mph72%29.94 "Hg10 mi
6:35 PM61 °FPartly sunny.No wind72%29.93 "Hg10 mi
6:15 PM63 °FScattered clouds.3 mph64%29.94 "Hg10 mi
5:55 PM63 °FScattered clouds.6 mph64%29.94 "Hg10 mi
5:35 PM63 °FPartly sunny.3 mph59%29.94 "Hg10 mi
5:15 PM63 °FPartly sunny.8 mph59%29.94 "Hg10 mi
4:55 PM64 °FPartly sunny.12 mph60%29.93 "Hg10 mi
4:35 PM64 °FPartly sunny.8 mph56%29.94 "Hg10 mi
4:15 PM64 °FPartly sunny.8 mph52%29.94 "Hg10 mi
3:55 PM64 °FOvercast.8 mph52%29.94 "Hg10 mi
3:35 PM63 °FBroken clouds.6 mph56%29.94 "Hg10 mi
3:15 PM63 °FBroken clouds.12 mph56%29.95 "Hg10 mi
2:55 PM63 °FPartly sunny.8 mph59%29.95 "Hg10 mi
2:15 PM63 °FBroken clouds.7 mph64%29.95 "Hg10 mi
1:55 PM63 °FCloudy.7 mph59%29.96 "Hg10 mi
1:35 PM64 °FMostly cloudy.8 mph56%29.96 "Hg10 mi
1:15 PM63 °FBroken clouds.10 mph56%29.96 "Hg10 mi
12:55 PM63 °FBroken clouds.6 mph64%29.96 "Hg10 mi
12:35 PM63 °FOvercast.7 mph68%29.97 "Hg10 mi
12:15 PM63 °FMostly cloudy.7 mph68%29.97 "Hg10 mi
11:55 AM61 °FCloudy.8 mph72%29.97 "Hg10 mi
11:35 AM57 °FOvercast.5 mph88%29.97 "Hg10 mi
11:15 AM55 °FDrizzle. Mostly cloudy.8 mph88%29.97 "Hg10 mi
10:55 AM55 °FOvercast.7 mph94%29.97 "Hg10 mi
10:15 AM55 °FOvercast.7 mph94%29.97 "Hg10 mi
9:55 AM55 °FOvercast.6 mph94%29.96 "Hg10 mi
9:35 AM55 °FLight rain. Overcast.8 mph94%29.95 "Hg10 mi
9:15 AM55 °FOvercast.5 mph100%29.95 "Hg10 mi
8:55 AM55 °FOvercast.3 mph100%29.94 "Hg10 mi
8:35 AM55 °FOvercast.No wind100%29.94 "Hg10 mi
8:15 AM55 °FOvercast.5 mph88%29.93 "Hg10 mi
7:55 AM57 °FOvercast.6 mph82%29.92 "Hg10 mi
7:35 AM57 °FOvercast.6 mph88%29.91 "Hg10 mi
7:15 AM57 °FOvercast.No wind82%29.91 "Hg10 mi
6:55 AM57 °FOvercast.3 mph82%29.90 "Hg10 mi
6:35 AM57 °FMostly cloudy.5 mph82%29.90 "Hg10 mi
6:15 AM57 °FPartly cloudy.6 mph82%29.89 "Hg10 mi
5:55 AM57 °FMostly cloudy.7 mph82%29.88 "Hg10 mi
5:35 AM57 °FRain. Mostly cloudy.5 mph82%29.88 "Hg10 mi
5:15 AM59 °FOvercast.No wind77%29.88 "Hg10 mi
4:55 AM57 °FPassing clouds.3 mph82%29.87 "Hg10 mi
4:35 AM57 °FPassing clouds.5 mph82%29.87 "Hg10 mi
4:15 AM57 °FPassing clouds.6 mph82%29.86 "Hg10 mi
3:55 AM59 °FPartly cloudy.5 mph77%29.86 "Hg10 mi
3:35 AM59 °FMostly cloudy.5 mph77%29.86 "Hg10 mi
3:15 AM59 °FMostly cloudy.5 mph77%29.87 "Hg10 mi
2:55 AM59 °FPartly cloudy.5 mph77%29.86 "Hg10 mi
2:35 AM59 °FPartly cloudy.7 mph72%29.86 "Hg10 mi
2:15 AM59 °FOvercast.8 mph72%29.85 "Hg10 mi
1:55 AM59 °FPassing clouds.8 mph72%29.84 "Hg10 mi
1:35 AM59 °FPassing clouds.8 mph72%29.84 "Hg10 mi
1:15 AM61 °FPassing clouds.7 mph68%29.84 "Hg10 mi
Weather by CustomWeather, © 2014

See weather overviewHow to use our weather pages